Flag for India Weather past 2 weeks in Mumbai, Maharashtra, India

Now
88 °F

Scattered clouds.


Feels Like: 105 °F
Forecast: 82 / 86 °F
Wind: 8 mph from Southwest

Location: Bombay / Santacruz

Current Time: Jul 25, 2014 at 3:22:16 PM

Latest Report: Jul 25, 2014 at 1:40 PM


Visibility: 2 mi

Pressure: 29.71 "Hg

Humidity: 79%

Dew point: 81 °F

Location of MumbaiLocation

Historic Weather in Mumbai — Graph

°F

Mumbai temperature yesterday

Maximum temperature yesterday: 88 °F (at 11:40 AM)
Minimum temperature yesterday: 81 °F (at 3:40 AM)
Average temperature yesterday: 84 °F

Past Weeks' High & Low Weather Summary

 TemperatureHumidityPressure
High88 °F (Jul 21, 11:40 AM)100% (Jul 10, 4:40 PM)29.74 "Hg (Jul 10, 4:40 PM)
Low75 °F (Jul 11, 10:40 PM)75% (Jul 14, 3:40 PM)29.50 "Hg (Jul 15, 5:40 PM)
Average82 °F89%29.62 "Hg
* Reported Jul 10 1:40 PM — Jul 25 1:40 PM, Mumbai, Weather by CustomWeather, © 2014

Note: Actual official high and low records may vary slightly from our data, if they occured in-between our weather recording intervals... More about our weather records

Advertising

Mumbai weather history for previous 24 hours

 ConditionsComfort  
Time TempWeatherWind HumidityBarometerVisibility
1:40 PM
Jul 25
88 °FScattered clouds.8 mph79%29.71 "Hg2 mi
11:40 AM88 °FScattered showers. Scattered clouds.14 mph79%29.74 "Hg2 mi
10:40 AM86 °FRain showers. Scattered clouds.10 mph79%29.71 "Hg1 mi
9:40 AM86 °FScattered clouds.9 mph84%29.71 "Hg2 mi
8:40 AM84 °FScattered clouds.10 mph84%29.71 "Hg2 mi
7:40 AM82 °FScattered clouds.12 mph89%29.71 "Hg1 mi
6:40 AM82 °FPassing clouds.8 mph89%29.68 "Hg1 mi
5:40 AM82 °FPassing clouds.9 mph89%29.68 "Hg2 mi
4:40 AM82 °FPassing clouds.13 mph89%29.65 "Hg2 mi
3:40 AM82 °FPassing clouds.13 mph89%29.65 "Hg2 mi
2:40 AM79 °FPassing clouds.10 mph94%29.68 "Hg2 mi
1:40 AM82 °FPassing clouds.14 mph89%29.68 "Hg2 mi
12:40 AM82 °FPassing clouds.12 mph89%29.68 "Hg2 mi
11:40 PM
Jul 24
82 °FPassing clouds.13 mph84%29.71 "Hg2 mi
10:40 PM84 °FPassing clouds.9 mph84%29.71 "Hg2 mi
9:40 PM84 °FPassing clouds.10 mph84%29.71 "Hg2 mi
8:40 PM84 °FPartly cloudy.13 mph84%29.68 "Hg2 mi
7:40 PM84 °FScattered clouds.15 mph84%29.68 "Hg2 mi
6:40 PM84 °FScattered clouds.8 mph84%29.65 "Hg2 mi
4:40 PM88 °FBroken clouds.8 mph79%29.62 "Hg2 mi
3:40 PM88 °FScattered clouds.12 mph75%29.62 "Hg2 mi
Weather by CustomWeather, © 2014

See weather overviewHow to use our weather pages